Weather Roundup
Issued by NWS Chicago, IL

Home | Current Version | Previous Version | Graphics & Text | Print | Product List | Glossary On
Versions: 1 2 3 4 5 6 7 8 9 10 11 12 13 14 15 16 17 18 19 20 21 22 23 24 25 26 27 28 29 30 31 32 33 34 35 36 37 38 39 40 41 42 43 44 45 46 47 48 49 50
000
NZUS59 KLOT 270600
HRRLOT

CHICAGO AREA WEATHER ROUNDUP
NATIONAL WEATHER SERVICE CHICAGO/ROMEOVILLE IL
100 AM CDT MON APR 27 2015

NOTE: "FAIR" INDICATES FEW OR NO CLOUDS BELOW 12,000 FEET WITH NO
SIGNIFICANT WEATHER AND/OR OBSTRUCTIONS TO VISIBILITY.

* THESE STATIONS ARE NOT UNDER NWS QUALITY CONTROL. THEY ALSO MAY NOT
  REPORT WEATHER SUCH AS PRECIPITATION OR FOG.

ILZ005-006-012>014-019>023-270700-
NORTHEAST ILLINOIS

CITY           SKY/WX    TMP DP  RH WIND       PRES   REMARKS
OHARE          CLEAR     42  30  62 N12       30.05S
6HR MIN TEMP:  42; 6HR MAX TEMP:  49;

MIDWAY         NOT AVBL
AURORA         CLEAR     38  27  64 N6        30.07S
6HR MIN TEMP:  36; 6HR MAX TEMP:  54;

WAUKEGAN       NOT AVBL
DUPAGE AIRPORT CLEAR     36  28  73 N7        30.06R
6HR MIN TEMP:  35; 6HR MAX TEMP:  51;

WHEELING       CLEAR     41  29  62 N7        30.08R
6HR MIN TEMP:  40; 6HR MAX TEMP:  47;

NORTHERLY IS     N/A     44  33  65 N15         N/A
$$

WIZ051-052-058>065-066-070>072-270700-
SOUTHEAST WISCONSIN

CITY           SKY/WX    TMP DP  RH WIND       PRES   REMARKS
MILWAUKEE      CLEAR     41  30  65 N8        30.09R
6HR MIN TEMP:  41; 6HR MAX TEMP:  45;

$$

INZ001>003-010>013-019-020-270700-
NORTHWEST INDIANA

CITY           SKY/WX    TMP DP  RH WIND       PRES   REMARKS
GARY*          NOT AVBL
MICHIGAN CITY* NOT AVBL
RENSSELAER*    NOT AVBL
$$

LMZ740>746-270700-
SOUTHERN LAKE MICHIGAN

STATION/POSITION TIME  SKY/WX   TEMP WIND        PRES    VSBY
                                AIR  DIR/SP/G
                 (UTC)          (F)  (DEG/KT/KT) (MB)    (MI)
HARRISON CRIB    0500            43  340/ 21/ 24   N/A
BURNHAM HARBOR   0500            45  350/ 13/ 19   N/A
CALUMET HARBOR   0500            44  340/ 12/ 18   N/A
BURNS HARBOR     0540            42  350/ 18/ 23 1016.9S
MICHIGAN CITY    0500            41  340/ 17/ 19   N/A
$$

ABBREVIATIONS USED IN REMARKS
   TC - TEMPERATURE IN CELSIUS
  WCI - WIND CHILL INDEX
   HX - HEAT INDEX
  VSB - VISIBILITY
$$


USA.gov is the U.S. government's official web portal to all federal, state and local government web resources and services.